Theta_e
343 347 346 345 345 344 345 346 348 350 351 353 350 351 350 351 346 355 354 351 351 349 344 342 341 336 333 337 343 337 336 335 336
339 344 346 346 345 345 343 344 347 348 349 354 349 355 350 347 347 345 351 351 350 352 346 342 341 335 335 329 337 334 337 327 338
337 339 343 346 346 345 345 344 344 348 349 354 347 347 348 348 347 345 344 352 354 351 348 341 342 333 322 325 324 330 320 333 338
337 337 339 344 346 347 347 346 346 348 351 353 352 348 348 349 349 349 345 350 352 348 351 343 332 324 321 319 327 326 324 319 330
336 336 337 339 344 346 348 349 348 348 350 354 357 356 348 347 347 346 345 340 350 348 350 340 330 323 319 320 332 324 323 323 336
336 336 339 339 340 344 347 350 350 349 350 350 354 357 357 354 348 347 344 339 340 344 341 337 332 323 319 324 332 325 327 323 327
335 336 337 343 343 339 347 349 351 351 351 351 353 355 357 359 356 350 349 348 341 336 335 335 335 326 321 327 332 327 325 324 325
335 334 335 344 347 346 350 350 353 353 354 353 353 355 357 358 359 357 357 356 351 348 341 339 337 328 321 326 332 335 330 328 326
335 334 334 341 348 349 349 351 354 356 355 355 354 356 357 358 360 359 358 357 356 353 349 345 338 327 323 326 334 338 333 327 326
335 334 333 334 347 350 351 353 355 357 357 356 356 358 357 359 361 359 359 357 354 355 352 346 343 338 325 328 339 335 334 334 327
334 334 334 334 340 349 351 354 356 357 359 358 358 357 359 360 360 360 357 352 354 353 351 347 343 339 333 335 339 335 336 336 328
333 333 333 335 333 345 350 353 356 358 359 359 359 359 360 360 362 359 356 351 350 351 350 348 345 342 341 341 338 337 336 338 336
331 333 333 334 337 341 350 353 355 359 360 360 360 360 361 361 360 356 354 350 352 351 349 347 345 342 341 340 338 336 337 338 336
336 336 339 340 344 346 352 354 356 357 359 360 361 361 360 359 355 353 354 356 351 351 349 347 343 343 342 341 341 340 339 337 334
343 342 343 344 347 349 354 354 355 357 358 359 357 356 357 356 354 354 354 353 348 347 348 345 343 342 342 341 342 340 338 338 334
346 347 348 348 350 353 354 357 357 358 357 356 356 356 355 355 354 350 350 347 348 346 347 343 342 341 341 341 340 338 337 336 333
349 351 354 355 354 356 357 357 358 359 357 357 355 355 349 347 345 347 346 345 347 343 343 343 342 341 341 340 337 336 334 332 329
346 347 350 352 354 354 356 356 355 355 350 351 352 348 349 348 346 346 344 344 343 342 342 341 341 339 339 336 331 328 327 328 327
348 349 350 352 353 353 353 352 351 352 351 350 348 344 344 343 343 342 341 340 341 340 338 337 336 336 335 332 331 331 328 327 328
347 347 349 350 351 351 350 350 350 347 341 343 342 347 344 344 344 343 341 339 336 335 332 328 329 329 329 328 327 328 328 326 325
Wind_Speed
27 28 30 33 34 34 35 36 39 38 37 38 35 35 33 31 28 27 25 23 19 15 14 13 18 13 12 10 10 7 8 5 3
18 26 29 35 35 36 36 38 40 41 39 39 39 34 34 33 33 31 28 25 23 18 17 15 20 15 14 10 9 8 9 6 8
21 20 27 30 35 37 37 37 39 41 42 40 41 37 34 35 36 36 34 29 27 23 21 21 21 17 16 14 2 13 13 7 9
23 25 25 28 33 36 40 39 39 41 42 42 42 39 38 37 37 35 35 33 33 31 27 27 27 22 20 16 11 12 16 9 14
15 22 23 29 29 33 38 42 41 41 40 38 39 38 40 40 39 38 38 38 36 34 33 31 29 25 23 21 15 15 14 13 11
24 7 5 9 16 29 36 42 45 43 42 39 36 36 36 39 41 42 43 42 40 38 38 35 32 29 28 24 14 17 17 15 16
15 14 12 15 20 25 33 38 45 45 42 38 36 35 35 38 42 44 43 42 43 43 43 40 38 34 29 27 13 20 19 18 18
26 21 14 13 17 21 29 35 39 45 40 40 37 38 38 38 39 40 38 38 40 42 42 41 39 35 32 30 21 21 21 21 20
23 20 23 14 15 21 29 35 38 38 44 39 39 38 39 37 37 38 39 37 35 37 35 36 40 37 35 33 24 20 19 21 20
29 30 29 24 18 23 29 33 35 37 41 40 38 37 37 36 36 37 35 29 30 36 35 40 45 44 40 31 24 21 21 20 22
34 36 32 33 22 23 28 31 31 33 32 39 39 40 33 33 34 32 29 26 30 33 32 35 39 35 35 29 24 24 21 20 26
37 34 36 36 31 25 27 31 33 33 34 36 36 35 34 33 29 28 26 27 28 27 26 29 30 30 26 27 30 25 26 23 24
39 32 36 33 28 20 26 32 32 33 32 32 33 31 33 29 26 26 23 21 21 22 22 24 27 26 28 29 33 31 29 25 25
21 30 25 25 24 25 29 31 32 33 30 29 27 26 25 25 24 21 18 20 19 21 22 21 23 22 17 19 19 19 22 20 22
10 16 19 23 23 24 25 30 34 31 29 27 28 25 22 21 20 17 18 18 16 17 18 18 16 13 13 16 21 23 24 22 24
9 13 14 19 24 25 25 26 30 31 28 28 27 24 22 20 19 15 16 18 16 14 15 14 14 11 9 15 16 15 16 17 18
10 12 14 18 25 28 29 27 28 29 28 25 24 22 20 19 18 20 16 13 11 10 11 11 9 9 9 9 10 11 11 9 11
15 17 19 22 25 29 28 26 26 25 26 23 19 17 16 16 16 14 17 19 18 13 11 8 5 6 8 9 8 8 9 10 11
14 15 16 17 21 26 25 26 26 23 21 20 19 17 15 15 16 15 12 12 11 8 6 8 8 13 10 11 10 10 9 11 12
18 16 15 14 16 19 18 19 24 20 21 17 18 15 14 12 11 12 11 10 9 10 11 9 10 11 11 12 11 12 12 10 11
Wind_Direction
195 197 210 212 210 210 208 208 207 208 209 215 222 220 220 224 226 217 221 224 214 221 214 216 227 230 220 214 241 235 240 249 249
214 195 207 212 211 210 209 206 205 206 207 212 223 217 221 224 228 219 217 217 230 213 213 213 225 224 205 217 235 245 248 239 241
236 209 204 211 211 210 209 208 208 207 208 212 220 218 222 223 227 230 215 216 218 212 218 206 223 218 222 215 208 312 259 226 260
227 215 202 208 212 212 210 209 206 208 209 211 217 219 221 221 225 225 228 217 224 226 215 227 226 236 228 210 232 259 236 253 212
235 218 216 204 205 211 211 208 209 209 209 210 213 213 220 225 228 229 227 228 221 228 224 231 233 235 226 214 255 238 245 247 220
243 223 254 266 221 210 209 205 206 208 207 209 209 212 215 220 226 230 233 235 227 228 232 233 233 231 228 226 251 244 242 240 233
250 229 226 236 237 232 207 206 204 205 206 206 208 210 210 214 220 226 229 227 236 236 235 238 236 234 230 232 242 237 233 233 234
244 237 230 229 236 224 203 202 205 203 206 204 205 207 211 214 218 222 219 222 229 233 237 238 238 234 226 233 236 229 231 232 240
240 254 261 227 227 220 206 204 203 203 204 205 203 207 208 209 214 217 221 224 229 230 230 232 234 229 229 232 232 228 244 243 239
248 253 257 258 221 222 209 205 203 203 201 200 202 204 204 205 207 217 226 225 221 229 231 231 235 239 230 230 229 230 253 255 237
240 245 253 258 228 220 215 206 204 200 198 196 200 201 200 197 204 216 223 215 219 223 230 228 231 227 231 231 237 241 244 255 242
250 245 244 245 243 218 210 205 197 195 195 195 195 194 193 196 198 202 208 212 215 222 221 226 230 227 230 229 229 248 258 259 243
242 244 237 246 249 216 198 197 195 189 192 190 187 186 188 189 190 197 201 210 209 216 221 228 233 233 233 243 253 250 257 257 241
242 237 238 240 229 207 191 187 188 182 185 188 181 177 177 181 187 188 193 204 203 212 217 223 228 232 239 245 248 251 249 247 234
230 224 220 212 201 185 181 180 177 170 173 175 170 167 169 173 174 174 195 206 202 204 205 208 213 220 223 238 245 248 254 249 235
217 210 190 185 173 162 162 167 161 156 159 163 160 158 164 165 173 171 189 199 198 199 201 204 212 213 229 245 252 251 250 237 231
162 162 154 158 155 147 148 152 148 148 148 154 149 154 164 175 178 185 182 178 180 194 196 207 219 229 235 237 225 227 238 238 249
120 131 137 146 143 136 139 141 136 138 145 147 149 153 156 161 166 160 168 172 170 180 198 205 204 216 202 194 206 246 247 261 255
104 111 117 129 131 126 127 130 128 130 135 142 145 146 155 171 171 168 165 158 170 185 189 197 181 164 181 217 223 231 239 235 221
97 94 102 109 110 113 120 126 126 138 140 147 136 135 143 143 150 160 166 149 156 183 193 187 193 211 224 233 246 237 238 228 225